Simultaneous Nadir Overpasses (SNOs) Predictions

Prediction of SNOs between METOP-B and NPP Satellite Orbit:

Table of predicted SNOs for the next 14.0 days since TLE Epoch: 12/29/2013
Index Date (METOP-B) Time (METOP-B) Lat,Lon (METOP-B) SZA (METOP-B ) Date (NPP) Time (NPP) Lat,Lon (NPP) SZA (NPP ) Distance(km) Time Diff (sec)
1 01/03/2014 06:18:05 73.38, 79.14 96.24 01/03/2014 06:16:57 73.38, 76.64 96.35 79.53 68
2 01/03/2014 07:08:48 -73.34,-113.63 83.81 01/03/2014 07:07:40 -73.34,-115.96 83.70 74.50 68
3 01/03/2014 07:59:33 73.06, 53.09 95.93 01/03/2014 07:58:21 73.08, 51.93 96.02 37.56 72
4 01/03/2014 08:50:16 -73.02,-139.67 84.11 01/03/2014 08:49:04 -73.05,-140.67 84.03 32.75 72
5 01/03/2014 09:41:00 72.78, 27.17 95.68 01/03/2014 09:39:45 72.78, 27.21 95.68 1.34 75
6 01/03/2014 10:31:42 -72.79,-165.48 84.32 01/03/2014 10:30:29 -72.79,-165.51 84.31 1.11 73
7 01/03/2014 11:22:22 72.76, 1.79 95.65 01/03/2014 11:21:15 72.78, 1.83 95.68 2.06 67
8 01/03/2014 12:13:04 -72.77, 169.14 84.35 01/03/2014 12:11:59 -72.79, 169.11 84.31 2.42 65
9 01/03/2014 13:03:43 72.79, -23.49 95.67 01/03/2014 13:02:45 72.78, -23.55 95.67 2.60 58
10 01/03/2014 13:54:26 -72.75, 143.76 84.37 01/03/2014 13:53:28 -72.74, 143.84 84.37 3.00 58
11 01/03/2014 14:45:05 72.77, -48.87 95.65 01/03/2014 14:44:15 72.78, -48.92 95.67 1.81 50
12 01/03/2014 15:35:48 -72.73, 118.37 84.40 01/03/2014 15:34:58 -72.75, 118.47 84.38 3.30 50
13 01/03/2014 16:26:27 72.75, -74.25 95.62 01/03/2014 16:25:45 72.78, -74.30 95.66 3.28 42
14 01/03/2014 17:17:09 -72.76, 93.10 84.38 01/03/2014 17:16:28 -72.75, 93.09 84.39 2.04 41
15 01/03/2014 18:07:49 72.73, -99.63 95.60 01/03/2014 18:07:14 72.73, -99.57 95.60 2.23 35
16 01/03/2014 18:58:31 -72.74, 67.72 84.40 01/03/2014 18:57:58 -72.75, 67.72 84.39 0.30 33
17 01/03/2014 19:49:11 72.71,-125.01 95.57 01/03/2014 19:48:44 72.73,-124.94 95.59 3.09 27
18 01/03/2014 20:39:53 -72.72, 42.33 84.43 01/03/2014 20:39:28 -72.75, 42.34 84.40 2.63 25
19 01/03/2014 21:30:32 72.74,-150.29 95.59 01/03/2014 21:30:14 72.73,-150.32 95.59 1.62 18
20 01/03/2014 22:21:14 -72.75, 17.06 84.41 01/03/2014 22:20:58 -72.75, 16.96 84.40 3.10 16
21 01/03/2014 23:11:54 72.72,-175.67 95.57 01/03/2014 23:11:44 72.73,-175.69 95.58 1.14 10
22 01/04/2014 00:02:36 -72.73, -8.33 84.43 01/04/2014 00:02:28 -72.75, -8.41 84.41 3.24 8
23 01/04/2014 00:53:16 72.70, 158.94 95.54 01/04/2014 00:53:14 72.73, 158.93 95.57 3.31 2
24 01/04/2014 01:43:58 -72.71, -33.71 84.46 01/04/2014 01:43:57 -72.70, -33.68 84.47 1.87 1
25 01/04/2014 02:34:38 72.68, 133.56 95.52 01/04/2014 02:34:43 72.68, 133.66 95.51 3.26 5
26 01/04/2014 03:25:20 -72.69, -59.09 84.48 01/04/2014 03:25:27 -72.70, -59.06 84.48 1.28 7
27 01/04/2014 04:15:59 72.71, 108.29 95.54 01/04/2014 04:16:13 72.68, 108.29 95.51 3.34 14
28 01/04/2014 05:06:42 -72.67, -84.47 84.51 01/04/2014 05:06:57 -72.70, -84.43 84.48 3.27 15
29 01/04/2014 05:57:21 72.69, 82.90 95.51 01/04/2014 05:57:43 72.68, 82.91 95.50 1.03 22
30 01/04/2014 06:48:03 -72.70,-109.75 84.49 01/04/2014 06:48:27 -72.70,-109.81 84.49 1.96 24
31 01/04/2014 07:38:43 72.67, 57.52 95.49 01/04/2014 07:39:13 72.68, 57.53 95.49 1.40 30
32 01/04/2014 08:29:25 -72.68,-135.13 84.51 01/04/2014 08:29:57 -72.70,-135.18 84.50 2.66 32
33 01/04/2014 09:20:04 72.70, 32.24 95.51 01/04/2014 09:20:43 72.68, 32.16 95.49 3.47 39
34 01/04/2014 10:10:47 -72.66,-160.51 84.54 01/04/2014 10:11:26 -72.65,-160.45 84.56 2.31 39
35 01/04/2014 11:01:26 72.68, 6.86 95.48 01/04/2014 11:02:13 72.68, 6.78 95.48 2.66 47
36 01/04/2014 11:52:09 -72.64, 174.11 84.56 01/04/2014 11:52:56 -72.65, 174.17 84.57 2.40 47
37 01/04/2014 12:42:48 72.66, -18.52 95.46 01/04/2014 12:43:42 72.63, -18.49 95.42 3.12 54
38 01/04/2014 13:33:30 -72.67, 148.83 84.54 01/04/2014 13:34:26 -72.65, 148.79 84.57 2.49 56
39 01/04/2014 14:24:10 72.64, -43.90 95.43 01/04/2014 14:25:12 72.63, -43.86 95.41 1.38 62
40 01/04/2014 15:14:52 -72.65, 123.45 84.57 01/04/2014 15:15:56 -72.65, 123.42 84.58 0.90 64
41 01/04/2014 16:05:32 72.62, -69.28 95.40 01/04/2014 16:06:42 72.63, -69.24 95.41 2.25 70
42 01/04/2014 16:56:14
